Wind_Speed
1 1 0 0 1 2 2 2 2 4 4 5 6 6 6 7 7 7 7 7 8 8 9 10 10 10 11 10 11 12 12 12 11 11 11 12 11 11 11 11 12 12 12
1 1 1 0 1 1 2 2 3 3 4 5 5 5 5 6 6 6 7 7 7 8 8 9 9 10 10 10 10 10 11 11 11 11 10 10 11 11 12 12 12 12 13
0 0 0 0 1 1 2 2 3 3 4 4 4 4 5 5 5 5 5 6 6 7 7 8 8 8 9 9 10 10 9 10 10 10 10 11 11 12 12 12 12 12 13
0 0 0 1 1 2 2 2 3 4 4 4 3 3 4 4 5 5 4 4 5 6 6 6 7 8 8 8 8 8 8 8 9 10 10 11 11 11 11 11 11 12 12
0 1 1 1 1 2 2 3 4 4 4 4 3 3 3 4 4 5 5 4 5 5 6 6 6 7 7 7 8 8 8 8 9 10 11 11 11 11 11 11 11 11 11
1 1 1 1 2 2 3 3 4 5 4 4 3 3 3 3 4 4 4 4 5 5 6 6 6 6 7 7 8 8 8 8 9 10 11 11 11 11 11 11 11 11 11
1 1 1 2 2 3 4 4 4 5 5 4 3 2 2 2 3 4 4 4 5 5 5 5 6 6 6 6 7 8 9 9 9 10 10 11 11 11 11 11 11 11 11
2 2 3 3 3 3 4 4 4 4 4 3 2 2 2 2 2 3 4 4 4 4 5 4 4 5 5 6 6 8 8 8 8 8 9 9 10 10 11 11 11 11 11
2 3 3 3 3 3 4 4 4 4 4 3 2 2 2 1 1 3 3 3 3 3 4 3 4 5 6 7 6 7 7 7 7 7 7 7 8 9 10 10 10 10 11
2 3 3 3 3 3 4 4 4 4 4 4 3 3 2 1 2 2 2 2 2 3 3 4 5 5 5 5 5 5 6 7 6 6 7 7 7 8 9 9 10 10 11
3 3 3 3 3 4 4 4 4 4 4 4 3 3 2 2 2 2 1 2 2 2 3 3 3 3 3 4 4 5 5 5 6 6 6 6 7 8 9 10 11 12 12
4 4 4 3 3 4 4 4 4 3 3 3 2 2 1 1 1 1 1 1 0 1 2 3 3 3 3 4 5 5 5 5 6 6 6 7 8 8 8 9 11 12 13
4 4 4 3 4 4 4 4 3 3 3 2 2 1 1 1 1 1 0 0 1 2 3 3 4 4 4 5 5 5 6 6 6 6 7 8 9 9 10 11 11 13 13
4 4 4 4 4 3 3 3 3 3 2 1 1 0 0 0 0 1 1 2 2 2 3 4 4 5 5 4 4 5 6 6 7 8 8 9 9 10 11 11 12 13 14
5 4 4 3 3 3 2 2 2 2 1 1 1 1 1 0 1 1 2 3 3 4 3 3 4 4 4 4 5 5 6 6 7 8 9 9 10 11 12 13 14 15 16
5 4 4 3 3 3 3 2 2 2 2 1 1 1 1 2 2 3 3 4 4 4 4 4 4 5 5 5 6 6 7 8 9 9 10 11 11 12 14 15 15 16 17
6 5 5 4 4 4 4 4 3 3 2 2 2 2 2 3 3 4 4 4 4 4 4 5 6 6 6 6 7 8 9 10 10 10 11 13 14 15 15 16 16 16 17
7 7 6 6 5 5 5 4 4 4 3 4 4 4 3 4 4 4 4 4 5 5 6 6 7 7 7 7 9 9 10 10 11 11 13 14 15 16 16 17 17 18 19
8 8 7 7 7 6 6 6 5 5 5 5 5 5 5 5 5 5 6 6 6 7 7 7 8 8 8 9 10 10 11 12 13 14 15 16 16 17 18 18 19 20 21
10 9 9 8 7 7 7 7 6 6 6 6 6 6 6 7 7 7 8 8 8 9 9 9 10 10 10 10 10 11 12 13 14 15 16 17 18 18 19 20 21 22 22
10 10 10 9 9 8 8 8 8 8 7 7 7 7 8 8 8 8 9 9 9 10 10 11 11 12 12 12 13 13 14 15 16 17 18 19 19 20 21 22 23 24 24
12 11 11 11 11 10 10 10 10 10 9 9 9 9 9 9 9 10 10 10 11 11 11 12 12 13 13 14 14 15 17 18 19 19 20 20 21 22 23 24 24 25 26
13 13 12 12 13 12 12 12 12 11 11 11 11 11 11 11 11 11 12 12 12 12 13 13 14 14 15 15 16 18 18 19 20 21 21 22 23 24 25 25 26 27 28
14 14 14 14 14 14 14 14 14 13 13 13 12 12 12 12 12 13 13 14 14 14 15 15 16 16 17 17 18 19 20 21 22 23 23 24 25 26 27 28 29 30 31
15 15 15 15 15 15 15 15 15 14 14 14 13 13 14 14 15 15 15 15 15 16 17 17 17 18 19 19 20 21 22 23 23 24 25 26 27 28 29 30 31 32 32
16 16 16 16 16 16 16 15 15 15 15 15 15 16 16 16 16 17 17 17 17 18 18 18 19 20 21 21 22 23 23 24 25 26 27 28 29 30 30 31 33 33 34
Wind_Direction
338 7 4 275 233 233 232 218 206 205 201 201 205 214 216 216 217 219 226 230 227 223 226 231 234 239 238 239 240 244 245 248 253 252 250 249 250 253 257 260 260 264 268
310 6 23 139 187 213 218 195 190 186 190 191 198 205 209 211 217 222 226 227 221 221 228 229 234 235 237 240 244 246 245 247 252 252 251 251 253 258 261 264 263 267 271
40 40 70 161 183 171 176 172 164 170 178 185 192 200 207 210 213 216 217 217 217 219 227 231 231 231 235 240 243 244 242 245 250 250 251 254 257 261 264 265 267 272 273
315 70 112 130 148 150 155 157 156 157 165 176 180 187 199 204 200 202 206 213 219 222 227 232 231 231 232 236 238 242 242 244 248 248 251 255 259 262 267 269 272 274 274
142 122 123 129 134 140 142 153 150 155 158 163 166 170 180 188 192 199 206 214 220 225 228 233 234 237 234 236 240 242 242 247 251 252 254 257 262 265 269 273 274 275 276
101 98 117 132 137 134 132 139 145 149 150 155 159 163 168 181 195 206 209 212 217 225 230 234 235 237 237 240 246 247 245 250 253 258 260 261 264 266 270 271 273 276 277
91 101 128 115 128 130 133 129 138 140 141 151 164 172 182 199 212 217 228 225 222 232 235 234 238 242 242 249 251 253 251 253 256 262 263 264 263 265 268 272 274 275 277
106 101 125 128 128 130 137 138 137 143 150 155 164 182 193 213 203 204 218 225 227 229 231 242 242 248 252 260 262 259 259 261 270 275 273 269 265 265 270 273 276 277 279
117 111 118 125 131 129 132 140 141 142 142 142 137 158 185 175 179 193 199 211 219 230 240 247 254 260 263 265 267 265 264 266 279 278 279 276 271 267 270 274 278 281 284
145 136 130 127 127 133 137 135 140 145 139 134 125 124 139 147 162 181 197 214 231 238 246 256 256 256 260 264 271 274 272 271 281 285 285 279 276 276 275 275 280 284 288
159 144 138 129 128 134 136 135 136 139 137 132 124 114 114 113 126 147 168 209 228 244 250 264 271 270 272 272 269 267 272 276 277 280 281 282 282 281 280 281 285 290 293
158 148 140 138 136 142 143 142 139 139 131 124 122 117 89 86 124 111 122 160 247 281 283 292 296 297 285 282 280 277 283 285 279 280 285 290 293 292 290 290 293 296 298
156 153 147 141 137 139 144 148 145 145 136 123 117 109 73 100 80 101 61 319 301 295 296 297 300 299 290 284 282 283 282 285 283 286 291 294 297 297 297 297 297 298 299
165 165 166 156 149 144 145 152 154 148 149 152 144 72 199 191 303 275 287 300 306 303 306 310 305 303 300 293 288 288 289 290 288 288 292 295 296 298 298 298 298 299 299
182 185 186 181 177 174 174 177 183 181 213 231 266 295 286 297 313 315 303 303 312 321 317 319 321 315 310 303 297 295 295 296 295 294 295 300 301 302 302 301 300 300 299
202 202 199 199 203 202 206 211 222 221 244 259 267 292 286 282 292 308 315 317 317 321 324 318 314 310 306 300 299 300 298 295 293 293 293 295 299 302 302 302 301 300 300
213 214 214 218 223 225 228 231 238 234 253 264 278 291 288 285 290 294 299 306 314 318 315 308 308 308 301 296 295 296 299 299 297 296 296 297 298 300 300 300 300 300 300
225 222 225 229 234 237 240 242 245 243 255 270 280 285 289 292 294 294 297 300 311 313 309 305 303 302 300 298 297 296 298 301 301 301 300 299 300 301 301 301 301 301 301
234 231 235 239 242 244 244 248 246 253 264 278 281 285 288 290 293 296 297 298 302 304 306 306 306 302 298 295 293 295 297 300 300 300 300 300 299 299 299 300 302 303 302
234 233 237 241 243 244 245 246 248 256 265 274 278 283 285 286 291 295 295 296 297 299 301 302 304 303 302 298 297 297 299 302 300 300 299 299 298 298 300 302 303 304 303
235 237 239 242 243 246 251 251 252 256 263 273 279 285 288 290 293 296 297 296 297 299 302 302 301 301 300 301 301 302 304 303 303 302 301 301 302 302 303 304 304 304 302
239 243 244 245 246 249 252 256 257 261 264 269 274 280 284 287 292 294 296 296 297 298 299 300 301 302 301 302 302 303 304 305 305 305 305 304 304 304 303 303 302 302 302
244 247 248 251 252 253 255 256 259 264 265 267 271 276 280 284 288 290 292 293 294 295 296 298 298 299 299 299 300 301 302 303 304 304 304 304 304 304 304 303 303 303 303
246 249 251 254 256 256 256 259 261 263 266 269 273 276 280 283 286 289 290 291 292 294 294 294 295 296 297 298 298 300 301 302 303 303 303 303 303 303 303 303 302 302 303
248 249 252 254 256 258 260 261 263 266 268 271 274 276 278 281 282 286 288 288 290 292 293 292 293 294 295 297 299 300 301 302 302 302 303 303 303 303 302 302 302 303 303
247 250 252 254 256 258 260 263 266 267 268 270 272 276 278 279 281 285 285 286 287 289 290 291 292 293 295 296 297 299 301 301 301 302 303 304 303 303 302 302 302 302 303
Height
5870 5869 5868 5868 5867 5867 5866 5866 5866 5866 5867 5868 5868 5869 5869 5870 5871 5871 5872 5873 5874 5874 5875 5876 5877 5878 5878 5879 5880 5880 5880 5880 5880 5879 5878 5878 5880 5881 5881 5882 5882 5881 5881
5870 5869 5868 5868 5867 5867 5867 5866 5867 5867 5867 5868 5868 5869 5869 5869 5870 5871 5871 5872 5873 5873 5874 5875 5875 5876 5877 5877 5878 5878 5878 5878 5878 5879 5878 5878 5879 5879 5880 5880 5879 5879 5879
5870 5869 5868 5868 5867 5867 5867 5867 5867 5867 5867 5868 5868 5868 5869 5869 5869 5870 5871 5871 5872 5873 5873 5874 5874 5875 5875 5876 5876 5876 5876 5877 5877 5877 5877 5877 5878 5878 5878 5877 5877 5877 5876
5870 5869 5868 5868 5867 5867 5867 5867 5867 5867 5868 5868 5868 5868 5869 5869 5869 5870 5870 5871 5871 5872 5872 5873 5873 5873 5874 5874 5875 5875 5875 5875 5875 5876 5876 5876 5876 5876 5876 5876 5875 5875 5874
5870 5869 5869 5868 5867 5867 5867 5867 5867 5868 5868 5869 5869 5869 5869 5869 5869 5870 5870 5870 5871 5871 5871 5872 5872 5872 5873 5873 5873 5873 5874 5874 5874 5874 5874 5874 5874 5874 5874 5873 5873 5873 5872
5870 5869 5869 5868 5868 5868 5868 5868 5868 5868 5869 5869 5869 5869 5869 5869 5870 5870 5870 5870 5870 5870 5871 5871 5871 5872 5872 5872 5872 5872 5872 5872 5872 5872 5872 5872 5871 5871 5871 5871 5871 5871 5870
5870 5869 5869 5869 5869 5869 5869 5869 5869 5869 5869 5869 5870 5870 5870 5870 5870 5870 5870 5870 5870 5870 5870 5870 5870 5871 5871 5871 5871 5871 5871 5871 5870 5869 5869 5869 5869 5869 5869 5869 5868 5868 5867
5870 5870 5869 5869 5869 5869 5869 5870 5870 5870 5870 5870 5870 5870 5870 5871 5870 5869 5870 5870 5870 5870 5870 5869 5869 5870 5870 5870 5870 5869 5869 5869 5868 5867 5866 5866 5866 5867 5867 5866 5866 5866 5865
5871 5870 5870 5870 5870 5870 5870 5870 5871 5871 5871 5871 5871 5871 5871 5870 5870 5870 5870 5870 5870 5870 5870 5869 5869 5869 5869 5869 5868 5868 5868 5867 5866 5865 5864 5864 5864 5864 5864 5864 5864 5863 5862
5871 5871 5871 5871 5871 5871 5871 5871 5871 5871 5871 5871 5871 5871 5871 5871 5870 5870 5870 5870 5870 5870 5869 5869 5869 5868 5868 5868 5867 5867 5867 5866 5865 5864 5864 5863 5862 5862 5862 5862 5862 5861 5860
5871 5871 5871 5871 5871 5872 5872 5872 5872 5872 5872 5872 5872 5872 5871 5871 5871 5871 5870 5870 5870 5869 5869 5868 5868 5868 5867 5867 5866 5866 5866 5865 5864 5864 5863 5862 5862 5861 5861 5860 5860 5859 5858
5872 5872 5872 5872 5872 5872 5873 5873 5873 5873 5873 5873 5873 5872 5872 5872 5871 5871 5870 5870 5870 5869 5869 5868 5868 5867 5867 5866 5866 5865 5865 5864 5863 5863 5862 5861 5861 5860 5859 5858 5858 5857 5855
5872 5872 5873 5873 5873 5873 5873 5873 5873 5874 5873 5873 5873 5873 5872 5872 5871 5871 5871 5870 5870 5869 5868 5868 5867 5866 5866 5865 5865 5864 5863 5863 5862 5862 5861 5860 5859 5858 5857 5856 5855 5854 5853
5873 5873 5873 5873 5874 5874 5874 5874 5874 5874 5874 5874 5873 5873 5872 5872 5871 5871 5871 5870 5870 5869 5868 5867 5866 5865 5864 5864 5863 5863 5862 5862 5861 5860 5859 5858 5857 5856 5855 5854 5853 5851 5850
5872 5873 5873 5874 5874 5874 5874 5874 5874 5874 5874 5874 5873 5873 5872 5872 5871 5871 5870 5870 5869 5868 5868 5866 5865 5864 5863 5863 5862 5861 5861 5860 5859 5858 5857 5856 5855 5854 5853 5851 5850 5848 5847
5872 5873 5873 5874 5874 5874 5874 5874 5874 5874 5874 5874 5873 5873 5872 5872 5871 5871 5870 5869 5868 5868 5867 5866 5865 5864 5863 5862 5861 5860 5859 5858 5857 5856 5855 5854 5853 5851 5850 5848 5846 5845 5843
5872 5872 5873 5873 5873 5874 5874 5874 5874 5873 5873 5873 5873 5872 5872 5871 5871 5870 5869 5868 5868 5867 5866 5865 5864 5863 5862 5861 5860 5859 5858 5856 5855 5854 5853 5852 5850 5849 5847 5845 5843 5841 5840
5871 5871 5872 5872 5873 5873 5873 5873 5873 5873 5873 5873 5872 5872 5871 5871 5870 5869 5869 5868 5867 5866 5865 5864 5863 5861 5860 5859 5858 5857 5856 5854 5853 5852 5850 5849 5847 5845 5843 5841 5840 5838 5836
5869 5870 5870 5871 5871 5872 5872 5872 5872 5872 5872 5872 5871 5871 5870 5870 5869 5868 5868 5867 5866 5865 5864 5863 5861 5860 5858 5857 5856 5855 5853 5852 5851 5849 5847 5846 5844 5842 5840 5838 5835 5833 5831
5868 5868 5869 5869 5870 5870 5870 5870 5871 5871 5871 5870 5870 5870 5869 5868 5868 5867 5866 5865 5864 5863 5862 5861 5859 5858 5857 5855 5854 5852 5851 5850 5848 5846 5844 5842 5840 5838 5836 5833 5831 5828 5826
5866 5866 5867 5867 5868 5868 5869 5869 5869 5869 5869 5868 5868 5868 5867 5866 5866 5865 5864 5863 5862 5861 5860 5859 5857 5856 5855 5853 5851 5850 5848 5847 5845 5842 5840 5838 5835 5833 5831 5828 5826 5823 5820
5863 5864 5865 5865 5866 5866 5866 5866 5867 5867 5866 5866 5866 5865 5865 5864 5864 5863 5862 5861 5860 5859 5858 5856 5855 5854 5852 5850 5849 5847 5845 5843 5841 5839 5836 5834 5831 5828 5825 5823 5820 5817 5814
5861 5861 5862 5862 5863 5863 5864 5864 5864 5864 5864 5864 5863 5863 5862 5862 5861 5860 5859 5858 5857 5856 5855 5854 5852 5851 5849 5847 5845 5843 5841 5839 5837 5834 5832 5829 5826 5823 5820 5816 5813 5810 5807
5857 5858 5859 5859 5860 5860 5860 5860 5861 5861 5860 5860 5860 5860 5859 5859 5858 5857 5856 5855 5854 5853 5852 5850 5849 5847 5845 5843 5841 5839 5837 5834 5832 5829 5826 5824 5820 5817 5813 5810 5806 5803 5799
5853 5854 5855 5855 5856 5857 5857 5857 5857 5857 5857 5857 5857 5856 5855 5855 5854 5853 5852 5851 5850 5849 5848 5846 5845 5843 5841 5839 5837 5835 5832 5829 5827 5823 5820 5817 5814 5811 5807 5803 5799 5795 5791
5849 5850 5851 5852 5852 5853 5853 5853 5853 5853 5853 5853 5853 5852 5851 5851 5850 5849 5848 5847 5846 5844 5843 5842 5840 5838 5836 5834 5832 5829 5826 5824 5821 5818 5814 5811 5807 5804 5800 5796 5792 5787 5783